GW2764 Weather Reports


Display with metric or nautical units.
time (UTC)temp
F
wind
direction
speed
MPH
gust
MPH
rain 1hr
in
rain 24hr
in
rain mn
in
humidity
%
barometer
mb
20260507051342 0 69 0.0 0.0 0.00 0.00 0.00 1015.5
20260507050834 0 68 0.0 0.0 0.00 0.00 0.00 1015.4
20260507050330 0 66 0.0 0.0 0.00 0.00 0.00 1015.5
20260507045827 0 63 0.0 0.0 0.00 0.00 0.00 1015.6
20260507045324 0 63 0.0 0.0 0.00 0.00 0.00 1015.7
20260507044821 0 67 0.0 0.0 0.00 0.00 0.00 1015.4
20260507044318 0 63 0.0 0.0 0.00 0.00 0.00 1015.3
20260507043814 0 64 0.0 0.0 0.00 0.00 0.00 1015.5
20260507043310 0 56 0.0 0.0 0.00 0.00 0.00 1015.5
20260507042807 0 59 0.0 0.0 0.00 0.00 0.00 1015.3
20260507042306 0 70 0.0 0.0 0.00 0.00 0.00 1015.5
20260507041800 0 68 0.0 0.0 0.00 0.00 0.00 1015.2
20260507041256 0 74 0.0 0.0 0.00 0.00 0.00 1015.1
20260507040753 0 79 0.0 0.0 0.00 0.00 0.00 1015.3
20260507040249 0 88 0.0 0.0 0.00 0.00 0.00 1015.1
20260507035745 0 75 0.0 0.0 0.00 0.00 0.00 1015.0
20260507035241 0 74 0.0 0.0 0.00 0.00 0.00 1015.0
20260507034739 0 72 0.0 0.0 0.00 0.00 0.00 1014.7
20260507034235 0 63 0.0 0.0 0.00 0.00 0.00 1014.7
20260507033734 0 68 0.0 0.0 0.00 0.00 0.00 1014.7
20260507033231 0 124 0.0 0.0 0.00 0.00 0.00 1014.6
20260507032728 0 137 0.0 0.0 0.00 0.00 0.00 1014.7
20260507032224 0 90 0.0 0.0 0.00 0.00 0.00 1014.5
20260507031721 0 84 0.0 0.0 0.00 0.00 0.00 1014.4
20260507031217 0 103 0.0 0.0 0.00 0.00 0.00 1014.4
20260507030714 0 80 0.0 0.0 0.00 0.00 0.00 1014.3
20260507030212 0 79 0.0 0.0 0.00 0.00 0.00 1014.1
20260507025709 0 93 0.0 0.0 0.00 0.00 0.00 1014.1
20260507025206 0 80 0.0 0.0 0.00 0.00 0.00 1014.1
20260507024704 0 122 0.0 0.0 0.00 0.00 0.00 1014.0
20260507024201 0 111 0.0 0.0 0.00 0.00 0.00 1014.0
20260507023656 0 140 0.0 0.0 0.00 0.00 0.00 1013.9
20260507023154 0 68 0.0 0.0 0.00 0.00 0.00 1013.8
20260507022651 0 178 0.0 0.0 0.00 0.00 0.00 1013.9
20260507022146 0 229 0.0 0.0 0.00 0.00 0.00 1013.9
20260507021643 0 125 0.0 0.0 0.00 0.00 0.00 1013.8
20260507021138 0 243 0.0 0.0 0.00 0.00 0.00 1013.7
20260507020637 0 241 0.0 0.0 0.00 0.00 0.00 1013.8
20260507020133 0 224 1.0 2.0 0.00 0.00 0.00 1013.8
20260507015631 0 229 0.0 1.0 0.00 0.00 0.00 1013.6
20260507015128 0 216 0.0 0.0 0.00 0.00 0.00 1013.8
20260507014625 0 168 0.0 0.0 0.00 0.00 0.00 1013.6
20260507014121 0 233 0.0 0.0 0.00 0.00 0.00 1013.3
20260507013618 0 320 0.0 0.0 0.00 0.00 0.00 1013.3
20260507013115 0 254 0.0 0.0 0.00 0.00 0.00 1013.1
20260507012612 0 237 0.0 0.0 0.00 0.00 0.00 1013.3
20260507012107 0 272 0.0 0.0 0.00 0.00 0.00 1013.2
20260507011606 0 236 0.0 0.0 0.00 0.00 0.00 1013.3
20260507011102 0 264 0.0 1.0 0.00 0.00 0.00 1013.3
20260507010556 0 338 0.0 1.0 0.00 0.00 0.00 1013.7
20260507010053 0 245 2.0 3.0 0.00 0.00 0.00 1013.2
20260507005550 0 25 0.0 0.0 0.00 0.00 0.00 1013.2
20260507005046 0 203 1.0 2.0 0.00 0.00 0.00 1013.3
20260507004543 0 250 3.0 7.0 0.00 0.00 0.00 1013.3
20260507004041 0 183 0.0 1.0 0.00 0.00 0.00 1013.2
20260507003536 0 112 0.0 0.0 0.00 0.00 0.00 1013.2
20260507003032 0 219 2.0 7.0 0.00 0.00 0.00 1013.4
20260507002529 0 267 2.0 6.0 0.00 0.00 0.00 1013.6
20260507002025 0 41 0.0 0.0 0.00 0.00 0.00 1013.2
20260507001521 0 222 0.0 0.0 0.00 0.00 0.00 1013.3
20260507001019 0 262 0.0 0.0 0.00 0.00 0.00 1013.3
20260507000514 0 251 0.0 0.0 0.00 0.00 0.00 1013.4
20260507000011 0 259 3.0 6.0 0.00 0.00 0.00 1013.2
20260506235508 0 113 0.0 0.0 0.00 0.00 0.00 1013.3
20260506235004 0 151 1.0 3.0 0.00 0.00 0.00 1013.3
20260506234502 0 322 2.0 6.0 0.00 0.00 0.00 1013.3
20260506233958 0 215 0.0 0.0 0.00 0.00 0.00 1013.4
20260506233455 0 239 0.0 0.0 0.00 0.00 0.00 1013.3
20260506232951 0 153 0.0 0.0 0.00 0.00 0.00 1013.7
20260506232447 0 241 1.0 2.0 0.00 0.00 0.00 1013.6
20260506231938 0 279 0.0 1.0 0.00 0.00 0.00 1013.6
20260506231436 0 283 0.0 0.0 0.00 0.00 0.00 1013.4
20260506230933 0 252 0.0 0.0 0.00 0.00 0.00 1013.8
20260506230429 0 214 0.0 0.0 0.00 0.00 0.00 1013.4
20260506225925 0 248 1.0 6.0 0.00 0.00 0.00 1013.6
20260506225423 0 340 0.0 0.0 0.00 0.00 0.00 1013.7
20260506224920 0 265 2.0 5.0 0.00 0.00 0.00 1013.7
20260506224417 0 273 0.0 0.0 0.00 0.00 0.00 1013.8
20260506223913 0 227 0.0 2.0 0.00 0.00 0.00 1013.9
20260506223409 0 195 1.0 2.0 0.00 0.00 0.00 1013.7
20260506222906 0 204 0.0 0.0 0.00 0.00 0.00 1013.9
20260506222402 0 339 0.0 0.0 0.00 0.00 0.00 1014.1
20260506221900 0 22 0.0 0.0 0.00 0.00 0.00 1013.9
20260506221356 0 204 0.0 0.0 0.00 0.00 0.00 1014.2
20260506220854 0 352 0.0 1.0 0.00 0.00 0.00 1014.0
20260506220350 0 91 0.0 0.0 0.00 0.00 0.00 1014.3
20260506215846 0 33 0.0 0.0 0.00 0.00 0.00 1014.3
20260506215341 0 196 4.0 6.0 0.00 0.00 0.00 1014.1
20260506214833 0 223 5.0 9.0 0.00 0.00 0.00 1014.5
20260506214329 0 137 0.0 0.0 0.00 0.00 0.00 1014.3
20260506213828 0 67 0.0 0.0 0.00 0.00 0.00 1014.4
20260506213324 0 256 1.0 2.0 0.00 0.00 0.00 1014.6
20260506212822 0 141 0.0 0.0 0.00 0.00 0.00 1014.5
20260506212317 0 237 2.0 5.0 0.00 0.00 0.00 1014.6
20260506211813 0 121 0.0 0.0 0.00 0.00 0.00 1015.0
20260506211309 0 146 0.0 0.0 0.00 0.00 0.00 1015.0
20260506210807 0 32 5.0 9.0 0.00 0.00 0.00 1015.3
20260506210303 0 40 0.0 0.0 0.00 0.00 0.00 1015.0
20260506205800 0 243 2.0 5.0 0.00 0.00 0.00 1015.1
20260506205256 0 303 1.0 2.0 0.00 0.00 0.00 1015.3
20260506204753 0 236 0.0 1.0 0.00 0.00 0.00 1015.4
20260506204251 0 249 0.0 0.0 0.00 0.00 0.00 1015.4
20260506203748 0 251 0.0 0.0 0.00 0.00 0.00 1015.3
20260506203245 0 297 0.0 0.0 0.00 0.00 0.00 1015.4
20260506202742 0 5 2.0 5.0 0.00 0.00 0.00 1015.5
20260506202239 0 104 1.0 2.0 0.00 0.00 0.00 1015.5
20260506201736 0 114 0.0 0.0 0.00 0.00 0.00 1015.5
20260506201232 0 85 0.0 0.0 0.00 0.00 0.00 1015.5
20260506200729 0 247 0.0 1.0 0.00 0.00 0.00 1015.8
20260506200226 0 182 0.0 1.0 0.00 0.00 0.00 1015.8
20260506195722 0 199 5.0 7.0 0.00 0.00 0.00 1015.5
20260506195219 0 266 0.0 0.0 0.00 0.00 0.00 1015.8
20260506194716 0 304 0.0 0.0 0.00 0.00 0.00 1015.8
20260506194212 0 53 0.0 0.0 0.00 0.00 0.00 1015.7
20260506193711 0 265 0.0 0.0 0.00 0.00 0.00 1015.9
20260506193207 0 350 0.0 0.0 0.00 0.00 0.00 1016.1
20260506192658 0 156 10.0 11.0 0.00 0.00 0.00 1015.8
20260506192154 0 232 2.0 10.0 0.00 0.00 0.00 1016.0
20260506191652 0 155 4.0 6.0 0.00 0.00 0.00 1015.8
20260506191147 0 190 5.0 7.0 0.00 0.00 0.00 1015.8
20260506190645 0 173 0.0 0.0 0.00 0.00 0.00 1016.0
20260506190141 0 240 5.0 6.0 0.00 0.00 0.00 1016.1
20260506185639 0 230 0.0 0.0 0.00 0.00 0.00 1016.0
20260506185134 0 144 0.0 0.0 0.00 0.00 0.00 1016.1
20260506184632 0 61 0.0 0.0 0.00 0.00 0.00 1016.1
20260506184129 0 229 4.0 8.0 0.00 0.00 0.00 1016.1
20260506183626 0 70 0.0 0.0 0.00 0.00 0.00 1016.6
20260506183122 0 218 6.0 7.0 0.00 0.00 0.00 1016.2
20260506182620 0 134 0.0 1.0 0.00 0.00 0.00 1016.6
20260506182116 0 176 0.0 0.0 0.00 0.00 0.00 1016.6
20260506181614 0 254 3.0 8.0 0.00 0.00 0.00 1016.7
20260506181111 0 239 2.0 5.0 0.00 0.00 0.00 1016.7
20260506180608 0 233 2.0 5.0 0.00 0.00 0.00 1016.8
20260506180105 0 208 0.0 0.0 0.00 0.00 0.00 1016.8
20260506175601 0 353 0.0 0.0 0.00 0.00 0.00 1016.7
20260506175057 0 229 0.0 1.0 0.00 0.00 0.00 1016.6
20260506174556 0 243 3.0 5.0 0.00 0.00 0.00 1016.9
20260506174052 0 247 0.0 0.0 0.00 0.00 0.00 1016.8
20260506173550 0 346 0.0 1.0 0.00 0.00 0.00 1016.7
20260506173046 0 302 0.0 0.0 0.00 0.00 0.00 1016.7
20260506172543 0 237 0.0 0.0 0.00 0.00 0.00 1016.8
20260506172039 0 224 3.0 3.0 0.00 0.00 0.00 1016.9
20260506171536 0 90 0.0 0.0 0.00 0.00 0.00 1016.8
20260506171029 0 273 0.0 0.0 0.00 0.00 0.00 1016.8
20260506170526 0 192 0.0 2.0 0.00 0.00 0.00 1016.7
20260506170023 0 214 0.0 0.0 0.00 0.00 0.00 1016.6
20260506165521 0 234 1.0 7.0 0.00 0.00 0.00 1016.7
20260506165012 0 333 0.0 0.0 0.00 0.00 0.00 1016.6
20260506164509 0 274 0.0 1.0 0.00 0.00 0.00 1016.8
20260506164007 0 211 0.0 0.0 0.00 0.00 0.00 1016.8
20260506163502 0 163 0.0 0.0 0.00 0.00 0.00 1016.6
20260506162956 0 194 0.0 0.0 0.00 0.00 0.00 1016.7
20260506162454 0 186 0.0 0.0 0.00 0.00 0.00 1016.5
20260506161945 0 63 0.0 0.0 0.00 0.00 0.00 1016.5
20260506161443 0 192 0.0 0.0 0.00 0.00 0.00 1016.3
20260506160935 0 125 0.0 0.0 0.00 0.00 0.00 1016.3
20260506160432 0 175 0.0 0.0 0.00 0.00 0.00 1016.3
20260506155929 0 183 0.0 1.0 0.00 0.00 0.00 1016.7
20260506155426 0 186 0.0 1.0 0.00 0.00 0.00 1016.5
20260506153548 0 225 1.0 2.0 0.00 0.00 0.00 1016.6
20260506153046 0 154 0.0 0.0 0.00 0.00 0.00 1016.3
20260506152542 0 112 0.0 0.0 0.00 0.00 0.00 1016.5
20260506152041 0 55 0.0 0.0 0.00 0.00 0.00 1016.3
20260506151538 0 124 0.0 0.0 0.00 0.00 0.00 1016.3
20260506151035 0 235 0.0 0.0 0.00 0.00 0.00 1016.3
20260506150531 0 169 0.0 0.0 0.00 0.00 0.00 1016.2
20260506150028 0 131 1.0 2.0 0.00 0.00 0.00 1016.5
20260506145525 0 127 0.0 0.0 0.00 0.00 0.00 1016.2
20260506145023 0 194 0.0 0.0 0.00 0.00 0.00 1016.1
20260506144519 0 81 0.0 0.0 0.00 0.00 0.00 1016.6
20260506144017 0 123 0.0 0.0 0.00 0.00 0.00 1016.5
20260506143514 0 79 0.0 0.0 0.00 0.00 0.00 1016.3
20260506143013 0 171 0.0 0.0 0.00 0.00 0.00 1016.5
20260506142510 0 195 0.0 0.0 0.00 0.00 0.00 1016.2
20260506142008 0 158 0.0 0.0 0.00 0.00 0.00 1016.2
20260506141506 0 149 0.0 0.0 0.00 0.00 0.00 1016.2
20260506141004 0 50 0.0 0.0 0.00 0.00 0.00 1016.0
20260506140501 0 59 0.0 0.0 0.00 0.00 0.00 1016.0
20260506135957 0 63 0.0 0.0 0.00 0.00 0.00 1016.0
20260506135455 0 60 0.0 0.0 0.00 0.00 0.00 1015.8
20260506134950 0 99 0.0 0.0 0.00 0.00 0.00 1015.5
20260506134446 0 80 0.0 0.0 0.00 0.00 0.00 1015.7
20260506133943 0 72 0.0 0.0 0.00 0.00 0.00 1015.7
20260506133441 0 153 0.0 0.0 0.00 0.00 0.00 1015.5
20260506132937 0 119 0.0 0.0 0.00 0.00 0.00 1015.2
20260506132434 0 87 0.0 0.0 0.00 0.00 0.00 1015.3
20260506131932 0 100 0.0 0.0 0.00 0.00 0.00 1015.4
20260506131428 0 91 0.0 0.0 0.00 0.00 0.00 1015.3
20260506130925 0 68 0.0 0.0 0.00 0.00 0.00 1015.4
20260506130422 0 66 0.0 0.0 0.00 0.00 0.00 1015.3
20260506125920 0 74 0.0 0.0 0.00 0.00 0.00 1015.1
20260506125418 0 81 0.0 0.0 0.00 0.00 0.00 1015.0
20260506124916 0 116 0.0 0.0 0.00 0.00 0.00 1015.1
20260506124413 0 98 0.0 0.0 0.00 0.00 0.00 1015.0
20260506123911 0 100 0.0 0.0 0.00 0.00 0.00 1014.6
20260506123409 0 97 0.0 0.0 0.00 0.00 0.00 1014.7
20260506122906 0 81 0.0 0.0 0.00 0.00 0.00 1014.7
20260506122402 0 69 0.0 0.0 0.00 0.00 0.00 1014.6
20260506121901 0 69 0.0 0.0 0.00 0.00 0.00 1014.4
20260506121357 0 67 0.0 0.0 0.00 0.00 0.00 1014.7
20260506120854 0 66 0.0 0.0 0.00 0.00 0.00 1014.2
20260506120352 0 67 0.0 0.0 0.00 0.00 0.00 1014.5
20260506115849 0 70 0.0 0.0 0.00 0.00 0.00 1014.4
20260506115347 0 65 0.0 0.0 0.00 0.00 0.00 1014.2
20260506114845 0 67 0.0 0.0 0.00 0.00 0.00 1014.4
20260506114342 0 64 0.0 0.0 0.00 0.00 0.00 1014.3
20260506113841 0 60 0.0 0.0 0.00 0.00 0.00 1014.5
20260506113338 0 67 0.0 0.0 0.00 0.00 0.00 1014.5
20260506112834 0 65 0.0 0.0 0.00 0.00 0.00 1014.6
20260506112332 0 59 0.0 0.0 0.00 0.00 0.00 1014.4
20260506111829 0 63 0.0 0.0 0.00 0.00 0.00 1014.5
20260506111328 0 61 0.0 0.0 0.00 0.00 0.00 1014.4
20260506110825 0 66 0.0 0.0 0.00 0.00 0.00 1014.5
20260506110321 0 66 0.0 0.0 0.00 0.00 0.00 1014.4
20260506105818 0 73 0.0 0.0 0.00 0.00 0.00 1014.2
20260506105315 0 92 0.0 0.0 0.00 0.00 0.00 1014.3
20260506104812 0 105 0.0 0.0 0.00 0.00 0.00 1014.3
20260506104310 0 87 0.0 0.0 0.00 0.00 0.00 1014.2
20260506103808 0 117 0.0 0.0 0.00 0.00 0.00 1014.4
20260506103305 0 101 0.0 0.0 0.00 0.00 0.00 1014.1
20260506102802 0 100 0.0 0.0 0.00 0.00 0.00 1014.4
20260506102300 0 83 0.0 0.0 0.00 0.00 0.00 1014.3
20260506101757 0 76 0.0 0.0 0.00 0.00 0.00 1014.3
20260506101253 0 94 0.0 0.0 0.00 0.00 0.00 1014.2
20260506100751 0 96 0.0 0.0 0.00 0.00 0.00 1014.0
20260506100249 0 76 0.0 0.0 0.00 0.00 0.00 1014.2
20260506095747 0 92 0.0 0.0 0.00 0.00 0.00 1014.2
20260506095244 0 79 0.0 0.0 0.00 0.00 0.00 1014.3
20260506094740 0 85 0.0 0.0 0.00 0.00 0.00 1014.0
20260506094239 0 84 0.0 0.0 0.00 0.00 0.00 1014.1
20260506093737 0 94 0.0 0.0 0.00 0.00 0.00 1014.2
20260506093234 0 107 0.0 0.0 0.00 0.00 0.00 1014.2
20260506092732 0 149 0.0 0.0 0.00 0.00 0.00 1014.2
20260506092230 0 134 0.0 0.0 0.00 0.00 0.00 1014.2
20260506091727 0 114 0.0 0.0 0.00 0.00 0.00 1013.9
20260506091224 0 214 0.0 0.0 0.00 0.00 0.00 1014.0
20260506090721 0 85 0.0 0.0 0.00 0.00 0.00 1014.0
20260506090218 0 110 0.0 0.0 0.00 0.00 0.00 1013.9
20260506085710 0 90 0.0 0.0 0.00 0.00 0.00 1013.8
20260506085206 0 56 0.0 0.0 0.00 0.00 0.00 1013.9
20260506084703 0 79 0.0 0.0 0.00 0.00 0.00 1013.8
20260506084159 0 226 0.0 0.0 0.00 0.00 0.00 1013.9
20260506083655 0 74 0.0 0.0 0.00 0.00 0.00 1014.0
20260506083153 0 85 0.0 0.0 0.00 0.00 0.00 1013.8
20260506082650 0 95 0.0 0.0 0.00 0.00 0.00 1013.8
20260506082145 0 107 0.0 0.0 0.00 0.00 0.00 1013.9
20260506081643 0 115 0.0 0.0 0.00 0.00 0.00 1013.9
20260506081141 0 123 0.0 0.0 0.00 0.00 0.00 1013.9
20260506080639 0 99 0.0 0.0 0.00 0.00 0.00 1013.9
20260506080135 0 99 0.0 0.0 0.00 0.00 0.00 1013.8
20260506073119 0 92 0.0 0.0 0.00 0.00 0.00 1014.0
20260506072615 0 99 0.0 0.0 0.00 0.00 0.00 1014.0
20260506072114 0 144 0.0 0.0 0.00 0.00 0.00 1013.9
20260506071611 0 123 0.0 0.0 0.00 0.00 0.00 1013.8
20260506071108 0 95 0.0 0.0 0.00 0.00 0.00 1014.0
20260506070605 0 75 0.0 0.0 0.00 0.00 0.00 1013.7
20260506062039 0 101 0.0 0.0 0.00 0.00 0.00 1013.7
20260506061535 0 92 0.0 0.0 0.00 0.00 0.00 1013.9
20260506061033 0 75 0.0 0.0 0.00 0.00 0.00 1013.8
20260506060531 0 66 0.0 0.0 0.00 0.00 0.00 1013.7